Temperature
4 5 5 5 6 6 5 5 4 5 5 6 6 5 7 7 7 6 6 6 6 5 5 5 4 4 4 4 3 3 3 3 3 3 3 3 3 3 3 3 3 3 3 3
4 5 5 5 5 6 6 6 5 5 6 6 7 7 7 7 6 6 6 6 6 5 5 5 5 4 4 3 3 3 3 3 3 2 2 2 2 2 2 2 2 2 2 2
3 4 5 5 6 6 5 5 5 6 6 6 6 6 7 7 7 7 7 6 6 6 5 5 4 4 4 3 3 3 3 3 2 2 2 2 2 2 2 2 2 2 1 1
3 4 4 6 7 6 6 6 6 6 6 6 6 7 8 8 7 7 7 7 6 6 5 5 4 4 4 3 3 3 3 2 2 2 2 2 1 1 1 1 1 1 1 1
3 3 4 6 6 6 6 6 6 6 6 6 7 6 7 8 8 7 7 7 6 6 5 5 4 4 4 3 3 3 3 2 2 2 1 1 1 1 1 1 0 0 0 -0
3 4 5 7 7 7 7 6 7 6 6 6 6 4 6 8 7 7 7 6 6 6 5 5 4 4 4 3 3 3 2 2 2 1 1 1 1 1 0 0 -0 -0 -1 -1
3 3 4 5 6 7 6 7 8 8 7 7 5 6 8 7 7 7 6 6 6 5 5 5 4 4 3 3 3 3 2 2 1 1 1 1 0 0 -0 -0 -0 -1 -1 -1
2 3 4 6 5 5 6 8 8 8 8 8 7 7 7 7 7 6 6 6 5 5 5 4 4 4 3 3 3 2 2 1 1 1 0 0 -0 -0 -0 -1 -1 -1 -1 -2
3 5 6 7 7 8 8 8 8 8 8 7 7 7 7 7 6 6 6 5 5 5 4 4 4 3 3 3 2 2 1 1 1 0 0 -0 -0 -1 -1 -1 -1 -2 -2 -2
2 3 5 7 8 8 8 8 8 8 7 7 7 7 6 6 6 5 5 5 5 4 4 4 4 3 3 2 2 2 1 1 0 0 -0 -0 -1 -1 -1 -2 -2 -2 -3 -3
2 3 5 7 8 8 8 8 7 7 7 7 6 6 6 6 5 5 5 4 4 4 4 4 3 3 3 2 2 1 1 0 0 -0 -1 -1 -1 -2 -2 -2 -3 -3 -4 -4
4 5 4 6 8 8 7 7 7 6 6 6 6 5 5 5 5 5 4 4 4 4 3 3 3 3 2 2 1 1 0 0 -0 -1 -1 -1 -2 -2 -3 -3 -3 -4 -4 -5
6 6 6 6 6 6 6 6 6 6 6 5 5 5 5 5 4 4 4 4 3 3 3 3 2 2 2 1 1 0 -0 -0 -1 -1 -1 -2 -2 -3 -3 -3 -4 -4 -5 -5
5 5 5 5 5 6 6 6 5 5 5 5 5 4 4 4 4 4 4 3 3 3 3 2 2 2 1 1 0 -0 -1 -1 -1 -2 -2 -2 -3 -3 -4 -4 -4 -4 -5 -5
4 4 4 5 5 5 5 5 5 5 5 4 4 4 4 4 4 3 3 3 3 2 2 2 1 1 1 0 -0 -0 -1 -1 -2 -2 -2 -3 -3 -4 -4 -4 -5 -5 -5 -6
4 4 4 4 4 4 4 4 4 4 4 4 4 4 3 3 3 3 3 2 2 2 2 1 1 1 0 -0 -1 -1 -1 -2 -2 -2 -3 -3 -4 -4 -4 -5 -5 -5 -6 -6
2 2 3 3 3 4 4 4 4 4 4 4 4 3 3 3 2 2 2 2 2 2 1 1 1 0 -0 -1 -1 -1 -2 -2 -2 -3 -3 -4 -4 -5 -5 -5 -6 -6 -6 -7
3 3 3 3 3 3 3 4 4 4 4 3 3 3 2 2 2 2 2 2 1 1 1 1 0 -0 -1 -1 -1 -2 -2 -2 -3 -3 -4 -4 -5 -5 -5 -6 -6 -6 -7 -7
3 3 3 3 3 3 3 3 3 3 3 3 3 3 2 2 2 2 2 1 1 1 1 0 -0 -1 -1 -1 -2 -2 -2 -3 -3 -4 -4 -5 -5 -5 -6 -6 -6 -7 -7 -7
3 3 3 3 3 3 3 3 3 3 3 3 3 2 2 2 2 1 1 1 1 1 0 -0 -1 -1 -1 -2 -2 -2 -3 -3 -4 -4 -5 -5 -5 -6 -6 -6 -7 -7 -7 -7
3 3 3 3 3 3 3 3 3 3 3 2 2 2 2 2 1 1 1 1 1 -0 -0 -1 -1 -1 -2 -2 -2 -3 -3 -3 -4 -4 -5 -5 -6 -6 -6 -7 -7 -7 -7 -8
4 4 3 3 3 3 3 3 2 2 2 2 2 2 2 1 1 1 1 0 0 -0 -1 -1 -1 -2 -2 -3 -3 -3 -4 -4 -4 -5 -5 -6 -6 -6 -6 -7 -7 -7 -8 -8
4 4 3 3 3 3 3 3 2 2 2 2 2 2 1 1 1 0 0 -0 -0 -1 -1 -1 -2 -2 -3 -3 -3 -4 -4 -4 -5 -5 -5 -6 -6 -7 -7 -7 -7 -8 -8 -8
3 3 3 3 3 3 3 3 2 2 2 1 1 1 1 1 0 0 -0 -1 -1 -1 -1 -2 -2 -3 -3 -3 -4 -4 -4 -5 -5 -5 -6 -6 -7 -7 -7 -7 -8 -8 -8 -8
3 3 3 3 3 3 3 2 2 1 1 1 1 1 1 0 -0 -0 -1 -1 -1 -1 -2 -2 -3 -3 -3 -4 -4 -4 -5 -5 -5 -6 -6 -6 -7 -7 -7 -8 -8 -8 -8 -8
2 2 2 2 2 2 2 2 1 1 1 1 1 1 0 -0 -0 -1 -1 -1 -1 -2 -2 -3 -3 -3 -3 -4 -4 -5 -5 -5 -6 -6 -6 -7 -7 -7 -7 -8 -8 -8 -8 -8
2 2 2 2 2 2 2 2 1 1 1 1 0 0 -0 -0 -1 -1 -1 -1 -2 -2 -2 -3 -3 -3 -4 -4 -5 -5 -5 -6 -6 -6 -7 -7 -7 -7 -8 -8 -8 -8 -8 -9
Wind_Speed
8 8 6 8 10 9 10 9 9 9 9 11 8 8 8 7 6 6 5 5 5 5 4 3 2 1 1 1 2 2 3 4 4 4 4 5 6 6 6 7 7 7 7 7
6 6 7 10 12 12 12 12 13 12 14 10 7 6 6 7 7 7 7 6 6 5 4 4 3 2 1 0 1 2 2 3 3 4 4 5 5 6 6 7 7 7 7 7
5 6 6 9 11 12 8 8 10 14 12 6 6 7 8 8 8 8 8 7 6 6 5 5 4 4 3 2 1 2 2 2 3 3 4 5 5 6 6 6 6 7 7 7
4 5 6 8 4 6 8 9 11 10 8 8 9 8 7 7 8 8 7 7 6 6 5 4 4 4 3 3 2 2 1 2 2 3 3 4 5 5 5 4 4 5 5 6
2 4 9 9 5 5 6 7 9 12 10 7 4 1 4 6 7 8 7 7 6 6 5 4 5 5 5 3 2 2 1 1 1 2 2 3 4 4 3 3 4 4 4 6
2 4 7 7 2 2 3 6 5 7 7 5 4 3 6 5 4 5 5 5 5 4 4 5 5 6 6 4 3 3 2 1 0 1 1 2 2 2 2 2 3 4 4 5
7 7 10 8 3 4 3 6 3 4 6 6 8 8 5 3 4 4 4 4 5 5 5 5 5 6 6 5 5 4 3 2 1 1 1 1 1 1 2 2 3 4 4 4
6 7 10 5 6 7 9 3 3 4 5 7 7 5 4 4 5 5 4 4 5 5 5 4 6 7 6 6 5 3 3 2 1 1 0 1 1 2 2 2 3 3 4 4
11 12 7 6 9 7 5 5 5 5 6 6 6 6 6 5 5 5 6 5 5 6 5 5 6 7 7 6 4 4 4 3 2 1 1 1 1 1 2 2 2 2 2 3
8 12 11 10 9 8 7 8 8 7 6 6 7 7 6 6 5 5 5 6 5 6 6 6 6 7 7 5 5 5 4 3 2 2 1 1 1 1 0 1 1 2 2 3
9 10 8 9 10 10 8 7 7 6 6 6 7 7 7 6 6 6 6 5 6 7 8 7 6 6 6 6 6 6 5 4 3 2 2 1 0 1 1 2 2 2 2 2
12 10 8 8 6 6 7 8 8 7 6 6 7 8 7 7 6 6 6 5 5 6 7 6 6 6 6 6 6 6 5 4 3 2 2 1 1 1 2 2 3 4 3 4
14 10 9 10 8 7 8 8 8 8 8 7 6 6 6 6 5 5 5 5 6 7 6 6 6 6 6 6 6 6 6 5 3 3 2 2 1 1 2 3 3 4 5 6
12 10 11 11 10 9 8 8 7 6 6 6 5 5 5 5 4 5 6 6 5 5 5 5 5 6 6 6 6 6 5 5 5 4 3 3 2 2 1 1 2 3 4 6
13 12 13 11 9 7 6 5 5 5 5 5 4 4 5 5 6 6 5 4 3 4 4 5 5 5 5 6 6 6 5 4 4 3 3 3 2 2 1 2 2 3 3 4
9 9 9 10 10 9 7 7 7 7 6 5 5 6 6 6 5 4 3 4 4 5 5 5 6 5 5 6 6 5 5 6 5 4 3 3 2 2 2 2 2 2 3 3
10 11 9 9 10 9 9 9 8 8 6 7 7 6 4 3 3 4 4 4 5 5 5 5 5 5 6 6 6 5 4 5 7 4 3 3 3 3 2 2 2 3 3 4
13 13 11 9 8 9 8 8 7 7 7 7 5 4 5 5 6 6 4 3 2 2 4 5 5 5 5 6 5 5 5 4 4 4 3 3 3 3 2 2 2 3 3 4
9 10 10 9 9 8 7 7 7 7 6 5 5 6 7 6 6 4 3 4 4 5 4 4 7 6 5 6 6 4 5 5 4 3 3 4 3 2 2 2 3 3 3 3
6 6 7 7 6 6 6 6 6 5 5 5 5 5 6 5 4 4 4 5 6 5 4 5 5 5 5 6 7 4 5 5 5 4 3 3 3 3 3 3 3 3 3 3
6 6 6 5 5 5 5 5 5 6 5 5 6 7 7 5 5 5 5 5 4 5 5 7 5 4 5 6 7 5 5 5 5 4 4 4 3 3 3 3 3 3 3 3
5 5 5 5 5 5 4 4 5 5 5 5 6 6 5 5 5 5 6 6 5 7 5 4 4 7 8 8 5 5 5 5 4 4 4 4 4 3 3 3 3 3 3 4
5 5 6 6 6 5 4 4 5 6 6 7 7 7 7 6 6 5 5 4 5 8 6 5 7 10 11 6 5 5 5 5 5 4 4 4 4 4 3 4 4 4 4 4
6 6 6 5 4 4 6 6 6 5 6 6 6 7 6 5 4 5 4 6 9 9 6 8 11 12 11 5 5 5 5 5 4 4 4 4 3 3 3 4 4 4 4 5
6 6 6 5 6 7 7 6 4 5 5 5 5 6 5 5 5 5 4 6 9 9 5 8 12 12 7 5 6 5 5 5 5 4 4 4 4 4 4 4 4 4 4 4
7 6 7 7 7 6 5 5 5 5 5 5 5 5 5 4 5 4 4 6 7 8 6 5 6 8 6 6 6 6 5 5 5 4 4 4 4 4 4 4 5 4 4 4
7 6 6 6 6 7 6 6 7 7 7 7 6 5 5 5 5 5 6 5 5 6 5 5 5 5 5 6 5 5 5 4 4 4 4 4 4 4 4 5 4 4 4 4
Wind_Direction
253 255 245 240 241 225 216 215 223 244 246 257 243 235 239 236 228 228 236 229 222 220 224 228 227 221 213 359 9 24 32 28 17 11 17 19 18 17 19 22 25 25 25 22
280 266 259 260 248 231 229 229 237 255 268 256 241 231 236 231 221 226 231 228 222 218 217 216 213 206 190 159 45 56 52 32 18 20 22 21 19 20 23 23 22 26 27 23
280 305 320 271 237 214 212 212 209 234 246 249 243 237 232 227 223 226 227 221 215 213 215 215 205 191 186 182 136 91 66 35 24 28 29 22 22 24 22 19 21 24 21 19
292 340 263 247 244 198 216 235 216 227 240 228 231 234 234 219 215 225 223 217 215 209 208 206 192 180 171 152 138 116 73 34 22 32 32 26 27 23 15 15 20 19 17 11
273 287 280 288 259 195 202 264 230 229 241 239 239 285 280 236 214 218 217 211 208 203 196 187 185 176 158 154 147 132 112 34 15 37 42 33 26 13 9 18 19 15 11 13
221 257 259 257 266 158 109 280 256 210 222 217 156 225 261 240 215 220 217 203 196 185 176 183 189 169 162 171 170 188 199 197 108 69 69 44 20 9 4 16 17 14 15 9
223 243 267 257 231 128 182 251 251 193 202 188 194 216 237 226 219 216 211 201 186 178 187 198 184 168 176 184 201 206 187 165 140 115 123 90 44 25 16 21 22 17 14 5
194 218 253 229 157 190 222 243 224 211 208 209 223 238 238 228 225 218 211 203 188 187 202 199 179 176 188 205 208 181 165 159 159 151 98 75 66 32 31 33 27 12 9 2
202 221 238 203 208 229 213 223 227 221 224 216 225 234 237 236 230 223 216 210 199 195 203 205 192 186 199 211 183 165 160 168 174 149 81 61 70 47 30 27 26 0 356 349
246 254 250 249 246 248 230 229 236 230 226 215 226 237 241 242 237 230 223 217 205 196 206 216 207 201 204 191 172 165 171 180 176 163 139 61 45 40 50 350 340 335 334 330
251 265 280 264 240 238 239 236 238 239 229 225 230 239 235 237 238 233 229 221 207 206 213 219 208 204 199 182 168 172 179 181 178 177 177 178 244 263 262 248 249 286 278 288
243 235 223 251 246 234 232 237 234 234 241 236 226 234 236 238 236 231 229 223 219 216 215 215 201 201 195 181 173 174 182 186 185 183 186 186 214 318 324 316 335 339 327 322
248 257 247 259 260 244 238 237 233 228 232 241 237 230 232 238 235 230 227 222 221 218 213 204 196 198 193 179 175 180 188 187 182 182 186 191 200 227 298 323 335 344 340 335
250 257 262 256 253 247 237 236 235 236 235 234 233 233 232 237 239 231 228 226 221 213 206 198 195 203 192 175 175 182 185 186 181 185 190 196 205 217 236 278 310 317 329 331
251 239 246 256 256 248 239 233 231 237 239 239 228 229 226 229 237 239 234 215 197 198 203 195 199 207 184 174 176 181 182 184 182 182 187 193 197 208 230 260 284 300 312 324
260 254 248 248 249 246 236 228 229 238 235 232 231 232 231 231 237 239 222 192 189 207 208 201 207 202 179 175 176 179 186 188 178 177 183 187 193 209 230 255 278 292 300 308
256 260 249 247 245 242 234 229 228 232 228 227 230 229 225 224 232 233 225 213 209 211 205 202 203 185 177 176 176 179 179 185 182 177 186 192 200 214 226 241 264 280 287 302
239 246 243 239 239 239 239 233 229 228 225 225 220 209 212 216 225 230 223 200 190 209 211 200 187 176 177 178 177 175 174 176 177 181 188 197 206 212 218 233 254 273 290 302
245 246 246 240 235 230 232 230 228 227 226 213 206 215 221 225 225 218 197 188 201 223 220 194 183 176 180 187 178 173 172 174 176 182 191 209 210 204 217 233 249 263 279 292
254 250 244 240 232 224 228 228 223 224 220 207 210 220 228 227 210 198 196 214 221 216 196 186 180 180 184 187 181 172 174 175 178 184 191 199 202 211 223 235 245 255 267 279
260 256 247 240 240 237 232 225 217 225 223 207 210 220 224 220 202 192 199 231 230 195 187 188 182 183 183 186 183 172 175 178 181 186 194 201 206 214 226 236 246 257 266 278
255 250 248 242 239 249 247 231 225 225 222 220 219 215 212 215 209 208 215 221 211 195 186 184 181 190 189 185 172 171 177 180 183 187 195 201 207 217 228 235 244 256 264 271
255 248 246 241 238 244 253 241 230 223 223 222 218 213 213 213 201 204 231 213 191 195 188 190 194 193 191 180 170 175 180 185 188 191 198 205 211 217 225 234 241 249 257 266
256 250 246 242 232 237 247 246 234 230 228 229 225 216 206 210 221 219 214 199 197 196 192 196 196 196 190 171 172 178 185 190 192 194 197 205 211 215 224 232 241 248 254 263
251 249 244 233 232 239 243 242 237 236 230 234 233 221 212 207 212 210 189 192 196 194 192 199 199 196 183 170 179 185 189 194 195 194 197 203 210 218 228 236 241 249 255 261
248 244 242 234 233 235 228 219 226 230 223 231 236 222 211 205 199 193 188 191 196 196 191 190 192 191 177 178 185 188 191 201 211 206 201 207 213 219 229 237 244 246 252 257
245 245 245 249 244 232 224 220 226 229 222 221 231 216 200 195 192 191 189 190 192 191 186 185 184 180 178 181 186 189 191 193 196 200 204 208 213 220 228 236 241 247 251 257
Height
1517 1513 1512 1510 1508 1507 1509 1509 1510 1500 1496 1487 1485 1485 1483 1483 1482 1482 1481 1480 1480 1479 1478 1477 1475 1474 1472 1470 1468 1466 1464 1462 1460 1458 1456 1454 1453 1451 1449 1447 1445 1443 1441 1439
1516 1509 1508 1505 1500 1499 1499 1498 1497 1494 1489 1480 1480 1480 1480 1479 1479 1478 1478 1477 1477 1476 1475 1474 1473 1472 1470 1469 1467 1465 1463 1461 1459 1457 1456 1454 1452 1450 1448 1446 1444 1442 1440 1438
1519 1512 1506 1501 1488 1489 1489 1486 1488 1488 1480 1476 1477 1477 1476 1475 1475 1474 1474 1474 1474 1473 1473 1472 1471 1470 1469 1467 1466 1464 1462 1461 1459 1457 1455 1453 1451 1450 1448 1446 1444 1442 1440 1438
1519 1516 1511 1488 1478 1479 1481 1478 1477 1475 1473 1472 1472 1471 1471 1471 1471 1471 1471 1471 1471 1470 1470 1469 1469 1468 1467 1466 1464 1463 1461 1460 1458 1456 1454 1453 1451 1449 1447 1445 1443 1441 1439 1438
1520 1518 1504 1484 1477 1476 1478 1475 1470 1470 1469 1469 1469 1470 1468 1468 1467 1468 1468 1468 1468 1468 1467 1467 1466 1466 1465 1464 1463 1461 1460 1458 1457 1455 1453 1452 1450 1448 1446 1444 1443 1441 1439 1437
1518 1513 1499 1479 1473 1472 1476 1475 1465 1464 1465 1466 1468 1472 1467 1464 1464 1465 1465 1465 1464 1464 1464 1463 1463 1463 1462 1461 1460 1459 1458 1457 1455 1454 1452 1451 1449 1447 1445 1443 1442 1440 1438 1436
1514 1511 1493 1475 1472 1473 1480 1471 1463 1462 1462 1463 1464 1464 1463 1462 1462 1462 1461 1461 1461 1461 1461 1460 1460 1460 1459 1458 1458 1457 1456 1455 1454 1452 1451 1449 1448 1446 1444 1442 1441 1439 1437 1435
1509 1507 1491 1468 1470 1471 1467 1461 1460 1460 1460 1460 1459 1459 1459 1459 1458 1458 1458 1458 1458 1457 1457 1457 1457 1457 1456 1455 1455 1455 1454 1453 1452 1451 1450 1448 1447 1445 1443 1441 1439 1437 1435 1433
1489 1479 1465 1463 1462 1460 1460 1459 1458 1458 1458 1457 1457 1456 1456 1455 1454 1454 1454 1454 1454 1453 1453 1453 1453 1453 1453 1453 1453 1452 1452 1451 1450 1449 1448 1446 1445 1443 1441 1440 1438 1436 1434 1432
1478 1465 1460 1458 1457 1457 1457 1456 1455 1455 1454 1453 1452 1452 1451 1451 1450 1450 1449 1449 1449 1449 1449 1449 1449 1449 1449 1449 1449 1449 1448 1448 1447 1447 1445 1444 1443 1441 1440 1438 1436 1434 1432 1430
1469 1459 1456 1452 1451 1451 1451 1451 1451 1450 1450 1449 1448 1447 1447 1446 1445 1445 1445 1444 1444 1444 1444 1444 1444 1445 1445 1445 1445 1445 1445 1445 1444 1444 1443 1442 1441 1439 1438 1436 1434 1432 1430 1428
1457 1451 1451 1447 1446 1447 1446 1446 1446 1445 1444 1444 1444 1442 1442 1441 1441 1440 1440 1439 1439 1439 1439 1439 1440 1440 1441 1441 1441 1441 1441 1441 1441 1440 1440 1439 1438 1437 1435 1434 1432 1430 1428 1426
1447 1445 1445 1442 1442 1441 1441 1441 1440 1440 1439 1438 1438 1437 1437 1436 1436 1435 1435 1434 1434 1434 1434 1435 1435 1435 1436 1436 1437 1437 1437 1437 1437 1437 1436 1436 1435 1434 1433 1431 1430 1428 1425 1423
1441 1442 1438 1436 1436 1436 1435 1435 1435 1434 1434 1433 1433 1432 1431 1431 1430 1430 1429 1429 1430 1430 1430 1430 1430 1431 1432 1432 1432 1433 1433 1433 1433 1433 1433 1432 1431 1430 1429 1428 1426 1424 1423 1421
1434 1434 1432 1430 1430 1429 1429 1429 1428 1428 1428 1428 1427 1427 1426 1426 1425 1425 1425 1425 1425 1425 1425 1426 1426 1427 1427 1428 1428 1428 1429 1429 1429 1429 1429 1428 1428 1427 1426 1424 1423 1421 1420 1418
1427 1426 1425 1424 1423 1423 1423 1423 1422 1422 1422 1422 1422 1422 1421 1421 1421 1420 1420 1420 1420 1420 1420 1421 1421 1422 1423 1423 1423 1424 1424 1425 1425 1425 1425 1425 1424 1423 1422 1421 1420 1418 1416 1415
1421 1418 1418 1417 1417 1417 1417 1417 1417 1417 1417 1417 1417 1417 1417 1416 1416 1416 1416 1416 1416 1416 1416 1417 1417 1418 1418 1419 1419 1420 1420 1420 1421 1421 1421 1421 1420 1420 1419 1418 1416 1415 1414 1412
1413 1412 1412 1411 1411 1411 1411 1411 1411 1411 1412 1412 1412 1412 1412 1412 1411 1411 1412 1412 1412 1412 1412 1412 1413 1413 1414 1414 1415 1415 1416 1416 1417 1417 1417 1417 1416 1416 1415 1414 1413 1412 1410 1409
1406 1406 1405 1405 1405 1405 1406 1406 1406 1407 1407 1407 1407 1407 1407 1407 1408 1408 1408 1408 1408 1408 1408 1408 1409 1409 1410 1410 1411 1411 1412 1412 1412 1413 1413 1413 1413 1412 1411 1411 1410 1408 1407 1406
1402 1401 1400 1400 1400 1401 1401 1402 1402 1402 1403 1403 1403 1403 1403 1403 1403 1403 1403 1404 1404 1404 1404 1404 1405 1405 1406 1407 1407 1407 1408 1408 1408 1409 1409 1409 1409 1408 1408 1407 1406 1405 1404 1403
1398 1398 1397 1397 1396 1397 1397 1398 1398 1398 1398 1399 1399 1399 1399 1399 1399 1399 1399 1399 1400 1400 1400 1400 1401 1401 1402 1403 1403 1403 1404 1404 1404 1405 1405 1405 1405 1405 1404 1403 1403 1402 1401 1399
1396 1395 1394 1394 1394 1393 1394 1394 1394 1394 1394 1394 1394 1394 1394 1394 1394 1394 1394 1395 1396 1396 1396 1396 1397 1397 1398 1399 1399 1399 1400 1400 1401 1401 1401 1402 1401 1401 1401 1400 1399 1398 1397 1396
1394 1393 1392 1391 1391 1390 1390 1390 1390 1390 1389 1389 1389 1389 1389 1390 1390 1390 1390 1391 1391 1391 1392 1392 1393 1394 1394 1395 1395 1396 1396 1397 1397 1397 1398 1398 1398 1397 1397 1396 1396 1395 1394 1393
1391 1390 1389 1388 1387 1386 1386 1386 1386 1385 1385 1384 1385 1385 1385 1385 1385 1385 1386 1386 1387 1387 1387 1388 1389 1389 1390 1391 1391 1392 1392 1393 1393 1394 1394 1394 1394 1394 1393 1393 1392 1391 1390 1389
1387 1386 1385 1384 1383 1382 1382 1381 1381 1380 1380 1379 1379 1380 1380 1380 1380 1381 1381 1381 1382 1383 1383 1384 1385 1385 1386 1387 1388 1388 1389 1389 1390 1390 1390 1390 1390 1390 1390 1389 1388 1387 1386 1385
1382 1381 1380 1379 1378 1377 1376 1376 1375 1375 1374 1374 1373 1374 1374 1375 1375 1375 1375 1376 1377 1378 1379 1380 1381 1381 1382 1383 1384 1384 1385 1385 1386 1386 1386 1386 1386 1386 1386 1385 1384 1383 1382 1381
1376 1374 1373 1372 1372 1371 1370 1369 1369 1368 1368 1368 1367 1368 1368 1369 1369 1369 1370 1371 1372 1373 1374 1375 1376 1377 1378 1379 1379 1380 1381 1381 1382 1382 1382 1382 1382 1382 1382 1381 1380 1380 1379 1377